Glendive, MT

10:43 PM MST on December 04, 2016 (GMT -0700)
Dawson Community

Weather History for KGDV - October, 2013

Change the Weather History Date:

Saturday, October 19, 2013

  Actual Average Record
Temperature  
Mean Temperature 48 °F -  
Max Temperature 60 °F 53 °F 84 °F (2003)
Min Temperature 35 °F 31 °F 23 °F (1999)
Degree Days  
Heating Degree Days 18    
Moisture  
Dew Point 32 °F    
Average Humidity 57    
Maximum Humidity 81    
Minimum Humidity 34    
Precipitation  
Precipitation 0.00 in - - ()
Sea Level Pressure  
Sea Level Pressure 29.77 in    
Wind  
Wind Speed 10 mph (WNW)    
Max Wind Speed 23 mph    
Max Gust Speed 29 mph    
Visibility 10 miles    
Events      
Averages and records for this station are not official NWS values.
T = Trace of Precipitation, MM = Missing Value Source: NWS Daily Summary

Daily Weather History Graph

Daily Weather History Graph

Search for Another Location

Airport or City:

Trip Planner

Search our weather history database for the weather conditions in past years. The results will help you decide how hot, cold, wet, or windy it might be!

Date:

Astronomy

Oct. 19, 2013 Rise Set
Actual Time 7:23 AM MDT 6:03 PM MDT
Civil Twilight 6:52 AM MDT 6:34 PM MDT
Nautical Twilight 6:17 AM MDT 7:10 PM MDT
Astronomical Twilight 5:41 AM MDT 7:45 PM MDT
Moon 6:28 PM MDT (10/19) 8:07 AM MDT (10/19)
Length of Visible Light 11h 42m
Length of Day
10h 40m
Full, 99% of the Moon is Illuminated
Oct 19
Full
Oct 26
Last Quarter
Nov 3
New
Nov 9
First Quarter
Nov 17
Full

Hourly Weather History & Observations

Time (MDT) Temp. Windchill Dew Point Humidity Pressure Visibility Wind Dir Wind Speed Gust Speed Precip Events Conditions
12:15 AM 39.2 °F 35.9 °F 30.2 °F 70% 29.84 in 10.0 mi NW 4.6 mph - N/A   Mostly Cloudy
12:35 AM 41.0 °F 36.4 °F 32.0 °F 70% 29.84 in 10.0 mi WNW 6.9 mph - N/A   Overcast
12:55 AM 42.8 °F 38.0 °F 32.0 °F 66% 29.84 in 10.0 mi WNW 8.1 mph - N/A   Overcast
1:35 AM 39.2 °F 33.6 °F 30.2 °F 70% 29.83 in 10.0 mi WNW 8.1 mph - N/A   Mostly Cloudy
1:55 AM 41.0 °F 35.2 °F 32.0 °F 70% 29.83 in 10.0 mi NW 9.2 mph - N/A   Partly Cloudy
2:15 AM 39.2 °F 34.2 °F 32.0 °F 75% 29.84 in 10.0 mi West 6.9 mph - N/A   Clear
2:35 AM 39.2 °F 33.0 °F 30.2 °F 70% 29.83 in 10.0 mi WNW 9.2 mph - N/A   Clear
2:55 AM 37.4 °F 30.8 °F 30.2 °F 75% 29.83 in 10.0 mi West 9.2 mph - N/A   Clear
3:15 AM 37.4 °F 30.8 °F 30.2 °F 75% 29.82 in 10.0 mi WNW 9.2 mph - N/A   Scattered Clouds
3:35 AM 39.2 °F 33.6 °F 33.8 °F 81% 29.82 in 10.0 mi WNW 8.1 mph - N/A   Mostly Cloudy
3:55 AM 37.4 °F 31.4 °F 30.2 °F 75% 29.82 in 10.0 mi WNW 8.1 mph - N/A   Mostly Cloudy
4:15 AM 37.4 °F 30.8 °F 30.2 °F 75% 29.82 in 10.0 mi WNW 9.2 mph - N/A   Mostly Cloudy
4:35 AM 39.2 °F 33.0 °F 30.2 °F 70% 29.82 in 10.0 mi West 9.2 mph - N/A   Mostly Cloudy
4:55 AM 39.2 °F 33.0 °F 30.2 °F 70% 29.82 in 10.0 mi West 9.2 mph - N/A   Overcast
5:15 AM 39.2 °F 34.2 °F 32.0 °F 75% 29.82 in 10.0 mi West 6.9 mph - N/A   Mostly Cloudy
5:35 AM 39.2 °F 34.2 °F 30.2 °F 70% 29.82 in 10.0 mi WNW 6.9 mph - N/A   Partly Cloudy
5:55 AM 37.4 °F 31.4 °F 30.2 °F 75% 29.82 in 10.0 mi WNW 8.1 mph - N/A   Partly Cloudy
6:15 AM 37.4 °F 32.1 °F 28.4 °F 70% 29.81 in 10.0 mi WNW 6.9 mph - N/A   Partly Cloudy
6:35 AM 35.6 °F 29.9 °F 30.2 °F 81% 29.81 in 10.0 mi NW 6.9 mph - N/A   Mostly Cloudy
6:55 AM 37.4 °F 31.4 °F 30.2 °F 75% 29.80 in 10.0 mi WNW 8.1 mph - N/A   Partly Cloudy
7:15 AM 35.6 °F 29.2 °F 28.4 °F 75% 29.80 in 10.0 mi WNW 8.1 mph - N/A   Clear
7:35 AM 35.6 °F 29.9 °F 28.4 °F 75% 29.80 in 10.0 mi WNW 6.9 mph - N/A   Clear
7:55 AM 35.6 °F - 30.2 °F 81% 29.80 in 10.0 mi Calm Calm - N/A   Clear
8:15 AM 37.4 °F - 30.2 °F 75% 29.80 in 10.0 mi Calm Calm - N/A   Clear
8:35 AM 41.0 °F 38.0 °F 32.0 °F 70% 29.80 in 10.0 mi WSW 4.6 mph - N/A   Clear
8:55 AM 42.8 °F - 33.8 °F 70% 29.80 in 10.0 mi Calm Calm - N/A   Clear
9:15 AM 44.6 °F 41.4 °F 33.8 °F 66% 29.80 in 10.0 mi West 5.8 mph - N/A   Clear
9:35 AM 48.2 °F - 33.8 °F 58% 29.80 in 10.0 mi West 10.4 mph - N/A   Partly Cloudy
9:55 AM 50.0 °F - 33.8 °F 54% 29.80 in 10.0 mi West 11.5 mph - N/A   Partly Cloudy
10:15 AM 51.8 °F - 33.8 °F 50% 29.80 in 10.0 mi West 10.4 mph - N/A   Clear
10:35 AM 51.8 °F - 32.0 °F 47% 29.79 in 10.0 mi WNW 13.8 mph - N/A   Clear
10:55 AM 51.8 °F - 33.8 °F 50% 29.78 in 10.0 mi West 18.4 mph - N/A   Clear
11:35 AM 55.4 °F - 33.8 °F 44% 29.78 in 10.0 mi WNW 17.3 mph 23.0 mph N/A   Clear
11:55 AM 55.4 °F - 32.0 °F 41% 29.77 in 10.0 mi West 19.6 mph 25.3 mph N/A   Partly Cloudy
12:15 PM 55.4 °F - 32.0 °F 41% 29.76 in 10.0 mi West 12.7 mph 23.0 mph N/A   Clear
12:35 PM 57.2 °F - 33.8 °F 41% 29.76 in 10.0 mi West 18.4 mph - N/A   Clear
12:55 PM 57.2 °F - 33.8 °F 41% 29.75 in 10.0 mi West 17.3 mph - N/A   Clear
1:15 PM 59.0 °F - 32.0 °F 36% 29.74 in 10.0 mi West 19.6 mph 26.5 mph N/A   Clear
1:35 PM 60.8 °F - 33.8 °F 36% 29.73 in 10.0 mi West 17.3 mph 26.5 mph N/A   Clear
1:55 PM 60.8 °F - 32.0 °F 34% 29.73 in 10.0 mi WNW 19.6 mph 25.3 mph N/A   Clear
2:15 PM 60.8 °F - 32.0 °F 34% 29.72 in 10.0 mi West 19.6 mph 26.5 mph N/A   Clear
2:35 PM 60.8 °F - 33.8 °F 36% 29.71 in 10.0 mi West 20.7 mph 24.2 mph N/A   Clear
2:55 PM 59.0 °F - 32.0 °F 36% 29.71 in 10.0 mi West 18.4 mph 26.5 mph N/A   Clear
3:15 PM 59.0 °F - 32.0 °F 36% 29.72 in 10.0 mi West 23.0 mph 28.8 mph N/A   Clear
3:35 PM 57.2 °F - 32.0 °F 38% 29.72 in 10.0 mi West 19.6 mph 28.8 mph N/A   Clear
3:55 PM 57.2 °F - 32.0 °F 38% 29.71 in 10.0 mi West 21.9 mph 27.6 mph N/A   Clear
4:15 PM 57.2 °F - 32.0 °F 38% 29.71 in 10.0 mi West 19.6 mph 24.2 mph N/A   Partly Cloudy
4:35 PM 57.2 °F - 33.8 °F 41% 29.71 in 10.0 mi West 19.6 mph 24.2 mph N/A   Clear
4:55 PM 55.4 °F - 32.0 °F 41% 29.71 in 10.0 mi West 18.4 mph 23.0 mph N/A   Scattered Clouds
5:15 PM 55.4 °F - 33.8 °F 44% 29.71 in 10.0 mi West 16.1 mph 24.2 mph N/A   Clear
5:35 PM 55.4 °F - 33.8 °F 44% 29.71 in 10.0 mi WNW 12.7 mph - N/A   Clear
5:55 PM 53.6 °F - 33.8 °F 47% 29.71 in 10.0 mi West 9.2 mph - N/A   Clear
6:15 PM 51.8 °F - 32.0 °F 47% 29.70 in 10.0 mi West 5.8 mph - N/A   Scattered Clouds
6:35 PM 48.2 °F - 33.8 °F 58% 29.71 in 10.0 mi West 6.9 mph - N/A   Partly Cloudy
6:55 PM 46.4 °F 41.9 °F 33.8 °F 62% 29.70 in 10.0 mi West 9.2 mph - N/A   Clear
7:15 PM 48.2 °F - 33.8 °F 58% 29.70 in 10.0 mi West 10.4 mph - N/A   Partly Cloudy
7:35 PM 46.4 °F 41.9 °F 33.8 °F 62% 29.70 in 10.0 mi West 9.2 mph - N/A   Scattered Clouds
7:55 PM 51.8 °F - 33.8 °F 50% 29.70 in 10.0 mi West 12.7 mph 18.4 mph N/A   Partly Cloudy
8:15 PM 53.6 °F - 33.8 °F 47% 29.71 in 10.0 mi WNW 20.7 mph 26.5 mph N/A   Partly Cloudy
8:35 PM 51.8 °F - 33.8 °F 50% 29.72 in 10.0 mi WNW 19.6 mph 27.6 mph N/A   Partly Cloudy
8:55 PM 51.8 °F - 33.8 °F 50% 29.73 in 10.0 mi NW 15.0 mph 23.0 mph N/A   Mostly Cloudy
9:15 PM 50.0 °F - 32.0 °F 50% 29.73 in 10.0 mi NW 11.5 mph - N/A   Mostly Cloudy
9:35 PM 48.2 °F - 32.0 °F 54% 29.72 in 10.0 mi WNW 11.5 mph 17.3 mph N/A   Partly Cloudy
9:55 PM 48.2 °F - 32.0 °F 54% 29.72 in 10.0 mi WNW 11.5 mph - N/A   Clear
10:15 PM 46.4 °F 41.1 °F 32.0 °F 57% 29.73 in 10.0 mi WNW 11.5 mph - N/A   Clear
10:35 PM 46.4 °F 40.7 °F 32.0 °F 57% 29.73 in 10.0 mi West 12.7 mph - N/A   Clear
10:55 PM 46.4 °F 40.1 °F 33.8 °F 62% 29.73 in 10.0 mi NW 15.0 mph - N/A   Clear
11:35 PM 46.4 °F 41.1 °F 33.8 °F 62% 29.75 in 10.0 mi NNW 11.5 mph - N/A   Scattered Clouds
11:55 PM 46.4 °F 41.1 °F 33.8 °F 62% 29.75 in 10.0 mi NNW 11.5 mph - N/A   Overcast